User: anonymous   Login
Location: Mississauga
(43.5802°N, 79.6166°W)
Time: 07:03:50
(UTC-04:00)
Language:

Cosmos 1437 Rocket - Orbit

View from above orbital plane
View from above orbital plane
View from above satellite
View from above satellite

Ground track
Ground track

The orbit data is extracted from the following two-line orbital elements,

1 13771U 83003B   14304.76757782  .00003931  00000-0  25938-3 0  1677
2 13771 081.1578 027.6663 0029600 301.7133 058.1205 15.06889792729112
Epoch (UTC): 31 October 2014 18:25:18
Eccentricity: 0.0029600
inclination: 81.1578°
perigee height: 525 km
apogee height: 566 km
right ascension of ascending node: 27.6663°
argument of perigee: 301.7133°
revolutions per day: 15.06889792
mean anomaly at epoch: 58.1205°
orbit number at epoch: 72911

The dashed part of the orbit path shows where the satellite is in the earth's shadow,  

DLR